Presure
241 242 262 234 219 260 239 243 220 224 217 221 225 219 216 225 207 202 201 208 202 201 196 197 196 201 193 205 215 159 208 188 216 224 228 215 225 120 180 152 202 200 124 212 211
252 251 246 255 238 228 236 238 212 236 221 224 210 212 223 215 220 219 223 227 234 215 214 208 211 203 197 195 201 184 224 132 183 202 167 185 203 200 195 82 163 193 198 197 200
261 254 245 249 249 253 255 234 242 250 246 227 227 205 205 218 215 223 222 214 212 229 226 214 217 211 210 203 174 197 169 175 162 210 175 187 191 176 188 183 93 187 190 192 84
261 257 255 250 249 249 234 239 256 220 223 242 228 227 217 213 223 220 210 223 219 219 225 214 209 217 211 197 181 217 187 190 204 215 196 168 134 170 175 186 185 196 155 196 206
281 272 265 258 256 253 258 249 250 262 250 239 235 236 226 206 215 203 208 213 199 192 213 227 206 212 216 208 210 196 181 188 199 192 195 194 187 195 194 173 198 231 192 148 184
359 322 285 286 279 271 265 263 266 259 312 251 270 239 224 215 209 212 211 205 204 208 200 215 215 205 215 208 192 190 188 205 195 206 173 188 196 221 225 216 220 226 229 127 173
276 326 344 334 316 288 282 279 236 310 257 272 242 251 236 223 208 205 213 210 199 194 192 201 222 207 201 215 206 185 180 181 195 210 185 191 185 195 198 224 209 215 221 222 215
258 263 284 323 301 315 310 305 292 288 290 251 253 259 236 224 212 207 205 205 209 209 194 203 229 220 201 205 206 206 195 186 206 196 184 200 211 196 231 223 189 211 214 209 209
240 245 251 282 309 299 297 282 273 267 271 273 276 244 242 230 214 207 207 207 212 213 214 232 236 229 207 202 205 202 208 199 187 192 209 179 203 223 209 214 222 223 218 211 201
259 242 251 241 285 244 293 272 262 262 255 243 244 244 242 234 226 214 212 208 210 221 237 231 229 223 204 201 200 203 203 212 187 214 198 215 218 209 218 176 216 239 217 210 203
261 248 242 247 251 305 297 265 259 249 238 234 228 231 225 224 222 213 127 215 252 239 235 230 221 217 221 205 205 204 203 208 207 196 224 214 191 217 230 227 233 202 231 229 215
384 262 238 247 243 260 302 265 259 247 235 234 231 216 234 286 279 267 263 250 242 235 228 225 219 217 219 195 195 199 204 211 217 214 223 223 225 215 226 232 226 226 223 220 237
483 540 254 237 246 245 268 265 260 238 242 230 229 215 287 280 267 261 252 243 233 227 226 222 215 220 222 222 219 220 217 215 217 218 224 221 228 219 228 218 227 215 226 218 231
550 502 480 253 232 240 249 282 258 247 243 238 229 255 281 270 260 252 242 235 230 224 227 221 220 214 215 224 221 222 227 224 225 230 221 225 237 228 232 231 219 232 217 211 219
511 477 415 264 249 227 232 248 272 251 241 241 230 217 273 267 251 245 239 235 230 225 221 221 223 222 224 224 226 230 234 233 238 244 245 245 254 246 228 235 234 228 233 203 219
473 499 494 314 248 238 227 233 280 258 245 235 230 218 245 258 246 245 243 243 234 230 231 233 237 228 226 230 238 245 252 256 258 259 274 260 263 207 234 227 228 229 232 223 224
485 513 483 449 264 242 226 230 250 262 242 232 226 223 217 235 252 243 243 239 238 240 238 235 236 241 240 225 218 220 225 224 226 227 227 237 244 249 126 229 232 237 257 241 228
481 498 487 398 281 251 240 223 236 247 247 224 230 221 217 216 213 242 249 248 247 243 210 210 201 206 210 217 223 220 226 234 244 253 257 257 75 82 249 271 151 257 251 258 257
506 493 482 398 346 267 242 227 236 221 257 235 225 232 220 215 210 207 206 207 206 208 205 204 210 215 217 206 222 233 232 247 261 276 316 318 243 323 321 119 309 284 250 248 247
483 454 490 366 348 275 252 229 231 233 218 250 232 231 227 217 216 213 213 215 214 213 213 213 214 223 223 224 239 333 324 318 320 331 352 372 381 86 88 91 218 279 264 255 235
459 425 343 349 348 303 267 232 228 233 226 250 246 230 225 222 221 217 218 217 217 216 214 211 207 224 274 297 290 331 330 250 222 331 341 349 293 397 249 281 296 278 271 250 244
392 382 374 354 362 320 275 235 233 231 227 228 262 243 235 227 216 219 217 217 212 211 201 212 245 264 276 272 275 315 340 336 334 322 329 339 356 361 281 173 241 295 255 255 252
357 355 358 348 332 324 288 242 224 225 224 228 219 222 245 243 233 217 211 212 199 209 228 265 265 241 272 260 257 267 343 368 352 337 299 350 161 340 349 402 269 91 254 260 253
339 331 359 357 344 318 325 288 196 221 221 207 219 215 209 211 214 216 216 213 219 244 264 255 237 263 263 267 252 256 258 294 394 407 413 374 359 366 400 381 390 259 237 270 253
328 335 320 316 318 320 315 287 209 226 220 219 218 212 209 214 215 216 215 220 259 251 167 233 249 246 254 252 262 229 267 257 277 299 319 356 364 361 363 366 380 384 238 243 238
323 316 305 305 307 313 321 339 238 232 225 214 216 217 217 212 222 222 218 236 255 236 245 223 157 118 234 249 237 235 238 256 267 267 285 293 300 308 312 323 332 337 361 240 236
317 307 322 296 300 310 238 349 275 237 224 218 219 216 208 218 215 230 236 226 225 176 250 157 240 234 234 233 210 235 236 251 240 263 258 274 268 284 289 279 263 275 322 318 247
Wind_Speed
70 68 65 77 71 73 78 85 76 81 78 79 81 83 83 85 89 92 89 87 85 84 85 86 77 82 82 76 71 54 70 68 71 71 70 57 61 35 53 51 62 62 43 67 67
71 72 72 73 74 75 76 79 71 85 81 83 74 77 80 80 81 83 80 79 74 75 79 82 80 76 78 75 72 70 60 42 64 70 48 47 59 59 60 29 53 61 62 62 61
71 74 72 72 72 71 73 76 77 83 86 82 84 74 74 77 80 80 75 77 75 67 65 74 75 74 72 76 65 70 64 65 59 72 53 51 53 49 60 61 35 57 57 62 23
71 75 75 74 74 74 72 73 73 75 74 85 83 82 81 77 77 78 73 75 71 66 62 69 72 68 70 75 71 60 74 74 73 69 65 47 36 50 54 68 57 61 49 60 65
72 76 79 80 81 81 79 76 74 76 79 79 81 84 80 75 78 72 70 72 68 65 64 63 72 67 63 70 65 70 69 72 73 71 62 60 56 60 62 60 57 57 56 51 56
46 63 75 80 85 84 79 75 75 70 74 77 82 84 79 77 72 75 75 75 70 67 65 63 68 71 62 68 75 75 67 70 75 74 55 59 62 55 60 64 60 57 58 49 57
37 39 48 50 67 78 77 75 66 65 68 75 73 81 84 76 73 75 75 73 69 67 68 67 68 73 71 65 70 77 67 67 76 72 65 58 56 63 61 57 60 60 59 59 60
39 40 39 48 57 53 53 55 59 62 64 66 70 80 80 77 74 75 74 74 74 76 69 70 73 70 73 69 69 71 78 76 72 72 60 68 62 61 58 59 55 61 61 59 60
50 50 46 39 50 53 53 56 58 58 58 60 65 70 76 80 72 73 75 74 76 75 75 75 73 69 71 72 71 76 73 79 68 69 71 53 63 63 53 61 60 61 61 61 60
50 54 49 50 41 47 55 58 57 55 53 55 60 63 67 74 76 73 74 73 75 79 75 72 70 65 72 77 75 74 72 71 78 73 77 69 58 68 63 48 60 57 61 63 64
59 56 57 55 45 54 56 56 55 55 54 59 55 55 60 64 68 70 36 76 79 76 72 69 66 67 72 76 76 75 74 76 78 80 79 71 61 59 61 59 56 64 60 62 67
65 63 59 60 55 44 53 55 58 58 54 54 54 54 60 70 72 78 76 75 74 71 69 67 67 70 72 73 72 76 77 80 82 81 75 71 56 60 61 58 61 61 61 63 60
38 43 66 61 59 50 38 58 58 53 55 51 52 50 62 66 69 72 71 73 70 68 68 67 68 71 71 73 78 82 77 81 80 80 75 72 64 63 63 62 61 66 63 66 61
26 37 51 68 52 54 45 48 58 56 52 52 48 50 60 64 68 70 69 70 69 66 67 65 70 69 71 76 79 79 84 80 79 81 76 81 71 72 68 65 64 64 69 72 67
20 37 59 69 64 45 49 50 59 57 50 48 42 41 60 64 65 66 66 66 63 62 62 66 69 66 70 77 78 80 84 85 86 88 85 80 81 63 67 68 68 68 68 72 72
22 22 39 77 64 58 50 52 52 57 49 42 39 40 54 59 62 59 60 64 61 61 65 66 70 70 75 80 81 82 84 84 87 86 82 77 83 38 68 72 77 74 72 75 74
17 8 40 60 72 62 57 50 50 49 45 43 41 40 38 51 58 51 57 58 60 62 63 64 69 70 71 64 59 61 67 68 68 69 58 71 78 56 44 70 75 86 85 78 75
11 7 37 68 73 70 66 44 45 42 47 44 44 41 38 34 34 49 55 57 55 50 42 46 51 52 55 59 66 62 67 77 79 82 83 89 15 12 74 81 55 84 83 78 70
11 22 44 68 72 73 66 51 50 45 49 48 43 42 38 38 38 38 38 38 40 41 44 46 52 54 57 55 65 74 78 90 92 94 96 90 54 65 61 10 70 82 83 77 68
14 30 43 63 74 73 66 57 54 51 45 49 45 41 41 39 38 37 36 38 40 42 45 48 53 60 63 69 79 55 59 61 61 59 53 36 49 12 16 15 54 76 81 78 62
32 35 58 61 69 78 66 56 55 51 45 46 50 44 41 38 38 37 38 38 40 42 45 43 46 64 24 22 28 34 38 32 31 50 49 47 33 31 63 73 75 74 76 74 67
41 43 58 58 59 69 68 62 56 49 48 46 49 46 41 38 37 37 36 36 36 41 35 50 53 36 11 22 24 36 37 42 48 50 54 53 34 33 26 45 62 72 69 70 64
43 44 51 64 65 71 64 58 52 51 47 44 43 41 39 38 35 36 35 34 27 40 50 24 15 44 10 16 23 30 39 36 41 49 47 58 16 33 42 30 73 21 60 64 60
45 42 38 51 51 55 60 65 37 50 46 38 44 43 39 37 36 36 35 35 38 30 21 24 38 9 16 18 22 29 35 44 19 22 14 12 28 33 28 32 31 67 52 58 59
39 43 43 43 43 52 61 59 44 54 49 48 46 41 38 38 37 35 30 33 20 25 12 33 20 12 19 26 32 11 39 39 49 50 46 22 19 26 27 24 26 33 65 60 57
42 40 35 39 43 45 45 44 58 55 51 42 42 43 41 35 37 32 27 29 24 23 27 24 12 12 15 22 28 32 35 40 47 44 54 53 49 51 38 41 36 21 24 59 50
37 34 40 32 29 26 15 32 56 57 54 46 45 42 35 38 30 27 26 22 22 12 13 11 4 5 16 19 17 29 33 32 33 41 43 45 45 49 41 46 30 13 24 53 51
Wind_Direction
248 248 247 247 248 243 245 244 248 248 247 247 246 245 246 247 248 250 251 253 253 254 255 254 252 257 255 258 256 241 258 251 252 252 251 254 252 245 251 249 255 255 247 253 254
245 245 245 246 248 249 244 244 246 245 247 246 248 247 247 247 247 248 249 252 251 250 249 255 255 253 255 255 255 255 250 242 258 257 252 259 256 258 259 241 253 254 255 256 255
246 248 250 248 248 246 246 244 243 241 242 246 244 247 247 248 247 247 247 250 251 252 244 248 251 252 250 255 249 254 252 254 254 252 258 265 261 255 257 258 240 255 253 253 234
252 250 250 250 249 249 248 247 245 245 244 242 244 245 246 247 244 246 247 249 252 252 247 243 248 249 248 251 250 248 256 257 256 254 255 249 248 248 258 260 260 258 254 257 252
252 251 249 251 249 249 245 246 246 244 240 240 241 241 242 243 244 246 248 248 244 239 246 243 246 248 245 245 245 250 254 257 256 257 256 258 256 261 259 255 256 249 244 249 257
268 256 251 250 247 246 246 247 248 246 239 236 233 237 240 239 242 244 244 244 246 247 244 245 242 246 245 242 247 250 248 252 257 256 250 255 261 258 254 256 258 255 249 240 245
266 272 258 252 248 247 247 249 244 243 236 232 236 232 234 238 239 241 244 244 246 245 243 247 247 243 247 245 241 250 253 257 258 255 254 259 259 259 261 252 255 255 252 249 247
260 257 271 251 247 244 241 237 237 237 234 235 234 229 231 235 236 239 242 244 246 247 246 250 253 240 246 246 244 243 247 254 255 262 259 264 257 260 255 254 249 253 253 250 249
267 261 259 265 246 242 237 231 232 232 232 231 229 230 229 233 235 239 242 245 246 248 249 251 249 244 240 246 246 245 245 248 254 256 257 255 260 262 258 253 252 252 252 251 248
257 261 254 256 257 237 232 228 230 228 227 228 229 230 231 233 235 238 241 244 247 251 247 245 245 245 240 245 248 248 249 254 255 258 254 253 250 258 261 260 254 256 253 251 249
258 251 253 249 241 242 233 228 226 225 224 224 227 232 233 235 236 239 238 246 238 241 241 242 243 244 243 243 247 250 252 252 253 253 257 252 256 257 266 259 261 249 254 251 251
250 246 252 244 244 232 235 225 224 224 226 226 228 229 233 224 226 230 230 232 233 237 240 242 242 244 245 250 253 254 254 255 256 258 261 264 260 256 268 267 259 259 257 254 255
252 240 235 249 238 237 225 222 224 228 226 227 228 229 223 224 225 227 227 229 234 236 238 241 244 247 248 251 252 252 255 257 259 262 265 265 265 260 265 259 260 254 256 253 255
276 228 225 231 243 236 219 227 222 224 225 226 228 230 223 222 222 224 227 229 232 237 240 243 248 250 252 251 252 256 258 262 263 262 261 264 259 261 262 260 253 256 251 250 252
301 218 215 221 227 238 230 219 221 221 222 224 227 226 224 222 223 227 230 232 236 242 247 249 251 257 258 259 263 265 263 264 263 263 261 264 264 257 258 258 255 247 249 246 250
291 243 208 213 223 227 229 232 219 217 217 222 223 225 224 225 227 230 233 236 242 245 250 254 257 259 260 261 264 266 268 268 268 268 267 263 261 250 252 252 255 248 244 242 245
307 268 199 188 213 220 227 230 217 217 215 219 220 221 222 225 230 234 237 240 244 248 253 258 261 261 264 266 268 268 267 266 266 266 262 261 260 255 249 250 249 253 250 242 241
288 227 186 185 209 211 219 225 219 213 212 216 220 221 222 224 225 233 238 243 249 251 246 252 254 259 263 268 269 274 275 276 274 273 270 269 259 284 257 254 237 242 246 245 244
291 188 175 181 189 209 214 216 211 214 212 214 218 221 221 224 228 231 235 239 242 247 250 256 263 270 273 269 275 278 280 278 276 273 268 267 262 253 245 336 235 228 236 239 236
168 158 173 178 186 206 207 208 210 210 216 211 216 219 222 224 230 236 242 247 252 257 263 268 273 276 280 280 282 284 284 281 276 275 280 278 265 254 269 265 238 225 227 234 229
153 157 176 183 179 201 205 201 212 209 214 213 213 218 221 225 232 238 244 251 257 265 269 275 277 279 310 354 327 306 284 269 268 283 285 281 268 270 224 230 226 220 221 225 224
145 157 171 177 176 191 204 199 209 208 212 212 210 214 220 224 232 239 246 253 263 270 271 279 283 280 310 318 331 350 318 297 288 288 286 285 287 264 240 226 226 217 218 219 219
153 160 167 174 182 194 205 192 205 207 212 210 216 218 214 222 228 240 250 259 263 273 278 265 276 293 18 329 344 4 345 309 282 278 278 279 237 227 237 216 218 241 216 215 217
158 164 154 175 183 194 195 202 202 206 210 211 213 219 226 231 236 242 251 261 269 263 242 272 289 309 357 5 5 12 10 34 322 281 272 237 208 228 185 177 183 215 213 209 214
170 153 157 159 179 192 201 201 202 203 208 210 214 223 229 231 237 245 256 265 215 249 254 290 272 304 30 22 23 8 40 32 41 47 56 77 107 112 120 127 147 160 219 217 219
163 162 169 179 192 201 207 200 197 198 207 215 217 220 225 229 236 244 253 268 239 272 247 298 279 263 26 48 39 31 26 38 47 55 58 65 70 81 84 91 93 121 164 217 216
156 160 159 184 193 198 205 194 197 199 204 210 215 221 223 232 235 242 254 234 246 250 237 256 110 69 56 50 40 36 28 40 44 64 61 66 80 73 93 99 126 160 173 190 206